DW1779 Weather Reports


time (UTC)temp
C
wind
direction
speed
KPH
gust
KPH
rain 1hr
cm
rain 24hr
cm
rain mn
cm
humidity
%
barometer
mb
20260905120644 20 146 0.0 0.0 0.00 0.00 0.00 96 1016.2
20260905120042 20 157 0.0 0.0 0.00 0.00 0.00 96 1016.1
20260905115545 20 157 0.0 0.0 0.00 0.00 0.00 96 1016.0
20260905115046 20 157 0.0 0.0 0.00 0.00 0.00 96 1015.8
20260905114544 20 157 0.0 0.0 0.00 0.00 0.00 96 1015.8
20260905114041 20 157 0.0 0.0 0.00 0.00 0.00 96 1015.8
20260905113542 20 159 0.0 0.0 0.00 0.00 0.00 96 1015.8
20260905113040 20 159 0.0 0.0 0.00 0.00 0.00 96 1015.8
20260905112540 20 159 0.0 0.0 0.00 0.00 0.00 96 1015.7
20260905112039 20 159 0.0 1.6 0.00 0.00 0.00 96 1015.6
20260905111539 20 159 0.0 1.6 0.00 0.00 0.00 96 1015.7
20260905111040 20 159 0.0 1.6 0.00 0.00 0.00 96 1015.6
20260905110638 20 159 0.0 1.6 0.00 0.00 0.00 96 1015.7
20260905110053 20 159 0.0 1.6 0.00 0.00 0.00 96 1015.7
20260905105553 21 159 0.0 1.6 0.00 0.00 0.00 96 1015.6
20260905105053 21 159 0.0 0.0 0.00 0.00 0.00 96 1015.7
20260905104553 21 159 0.0 0.0 0.00 0.00 0.00 96 1015.8
20260905104052 21 159 0.0 0.0 0.00 0.00 0.00 96 1015.9
20260905103552 21 159 0.0 0.0 0.00 0.00 0.00 96 1015.8
20260905103058 21 159 0.0 0.0 0.00 0.00 0.00 96 1015.8
20260905102554 21 159 0.0 0.0 0.00 0.00 0.00 96 1015.8
20260905102051 21 159 0.0 0.0 0.00 0.00 0.00 96 1015.9
20260905101550 21 159 0.0 0.0 0.00 0.00 0.00 95 1016.0
20260905101051 21 159 0.0 0.0 0.00 0.00 0.00 95 1015.9
20260905100652 21 159 0.0 0.0 0.00 0.00 0.00 95 1015.9
20260905100056 21 159 0.0 0.0 0.00 0.00 0.00 95 1015.8
20260905095548 21 159 0.0 0.0 0.00 0.00 0.00 95 1015.9
20260905095050 21 159 0.0 0.0 0.00 0.00 0.00 95 1015.9
20260905094548 21 159 0.0 0.0 0.00 0.00 0.00 95 1016.0
20260905094047 21 159 0.0 0.0 0.00 0.00 0.00 95 1015.8
20260905093547 21 159 0.0 0.0 0.00 0.00 0.00 95 1015.8
20260905093047 21 159 0.0 0.0 0.00 0.00 0.00 94 1015.9
20260905092546 21 159 0.0 0.0 0.00 0.00 0.00 94 1015.8
20260905092046 21 159 0.0 0.0 0.00 0.00 0.00 94 1015.8
20260905091552 21 159 0.0 0.0 0.00 0.00 0.00 94 1015.8
20260905091046 21 159 0.0 0.0 0.00 0.00 0.00 94 1015.8
20260905090646 21 159 0.0 0.0 0.00 0.00 0.00 93 1015.8
20260905090043 22 159 0.0 0.0 0.00 0.00 0.00 93 1015.7
20260905085543 22 159 0.0 0.0 0.00 0.00 0.00 93 1015.6
20260905085042 22 159 0.0 0.0 0.00 0.00 0.00 93 1015.5
20260905084548 22 159 0.0 0.0 0.00 0.00 0.00 93 1015.5
20260905084043 22 159 0.0 1.6 0.00 0.00 0.00 93 1015.6
20260905083544 22 159 0.0 1.6 0.00 0.00 0.00 93 1015.5
20260905083041 22 159 0.0 0.0 0.00 0.00 0.00 93 1015.5
20260905082541 22 159 0.0 0.0 0.00 0.00 0.00 92 1015.5
20260905082041 22 159 0.0 1.6 0.00 0.00 0.00 92 1015.5
20260905081541 22 159 0.0 1.6 0.00 0.00 0.00 92 1015.6
20260905081039 22 159 0.0 1.6 0.00 0.00 0.00 92 1015.6
20260905080502 22 159 0.0 1.6 0.00 0.00 0.00 92 1015.6
20260905080139 22 159 0.0 0.0 0.00 0.00 0.00 92 1015.7
20260905075600 22 159 0.0 1.6 0.00 0.00 0.00 92 1015.6
20260905075059 22 159 0.0 1.6 0.00 0.00 0.00 92 1015.5
20260905074603 22 159 0.0 1.6 0.00 0.00 0.00 92 1015.5
20260905074057 22 159 0.0 1.6 0.00 0.00 0.00 92 1015.7
20260905073557 22 159 0.0 1.6 0.00 0.00 0.00 91 1015.5
20260905073057 22 159 0.0 1.6 0.00 0.00 0.00 91 1015.6
20260905072559 22 159 0.0 1.6 0.00 0.00 0.00 91 1015.6
20260905072056 23 159 0.0 1.6 0.00 0.00 0.00 91 1015.7
20260905071602 23 159 0.0 1.6 0.00 0.00 0.00 90 1015.8
20260905071059 23 159 0.0 3.2 0.00 0.00 0.00 90 1015.6
20260905070656 23 156 0.0 3.2 0.00 0.00 0.00 90 1015.7
20260905070057 23 130 0.0 3.2 0.00 0.00 0.00 90 1015.7
20260905065556 23 158 0.0 3.2 0.00 0.00 0.00 90 1015.7
20260905065055 23 190 0.0 3.2 0.00 0.00 0.00 90 1015.9
20260905064600 23 131 0.0 1.6 0.00 0.00 0.00 90 1015.7
20260905064055 23 161 0.0 0.0 0.00 0.00 0.00 91 1015.8
20260905063555 23 161 0.0 0.0 0.00 0.00 0.00 90 1015.8
20260905063054 23 161 0.0 1.6 0.00 0.00 0.00 90 1015.9
20260905062554 23 161 0.0 1.6 0.00 0.00 0.00 90 1015.9
20260905062054 23 163 0.0 3.2 0.00 0.00 0.00 89 1015.9
20260905061558 23 134 0.0 3.2 0.00 0.00 0.00 90 1016.0
20260905061055 23 145 0.0 4.8 0.00 0.00 0.00 90 1016.0
20260905060655 23 128 1.6 4.8 0.00 0.00 0.00 90 1015.9
20260905060100 23 114 0.0 8.0 0.00 0.00 0.00 89 1015.8
20260905055558 23 191 0.0 6.4 0.00 0.00 0.00 89 1015.9
20260905055055 23 138 1.6 8.0 0.00 0.00 0.00 89 1015.9
20260905054557 23 165 1.6 11.3 0.00 0.00 0.00 90 1015.8
20260905054053 23 169 3.2 11.3 0.00 0.00 0.00 90 1015.8
20260905053555 23 148 1.6 8.0 0.00 0.00 0.00 90 1015.9
20260905053107 23 194 1.6 4.8 0.00 0.00 0.00 90 1015.8
20260905052552 23 161 0.0 4.8 0.00 0.00 0.00 90 1015.8
20260905052050 23 182 0.0 4.8 0.00 0.00 0.00 91 1015.9
20260905051555 23 131 0.0 4.8 0.00 0.00 0.00 91 1015.9
20260905051049 23 151 0.0 4.8 0.00 0.00 0.00 91 1015.7
20260905050650 23 138 0.0 6.4 0.00 0.00 0.00 91 1015.8
20260905050046 23 186 0.0 8.0 0.00 0.00 0.00 91 1015.8
20260905045546 23 148 0.0 6.4 0.00 0.00 0.00 91 1015.7
20260905045047 23 206 0.0 3.2 0.00 0.00 0.00 91 1015.7
20260905044548 23 154 0.0 1.6 0.00 0.00 0.00 91 1015.7
20260905044046 23 155 0.0 4.8 0.00 0.00 0.00 92 1015.8
20260905043547 23 175 0.0 4.8 0.00 0.00 0.00 92 1015.7
20260905043104 23 138 0.0 3.2 0.00 0.00 0.00 92 1015.9
20260905042546 23 157 0.0 1.6 0.00 0.00 0.00 92 1015.7
20260905042046 23 143 0.0 1.6 0.00 0.00 0.00 92 1015.7
20260905041546 23 140 0.0 1.6 0.00 0.00 0.00 92 1015.8
20260905041050 23 148 0.0 1.6 0.00 0.00 0.00 92 1015.8
20260905040646 23 135 0.0 4.8 0.00 0.00 0.00 92 1015.8
20260905040048 23 156 1.6 4.8 0.00 0.00 0.00 92 1015.8
20260905035540 23 175 0.0 4.8 0.00 0.00 0.00 92 1015.8
20260905035040 23 176 0.0 3.2 0.00 0.00 0.00 91 1016.1
20260905034542 23 149 0.0 3.2 0.00 0.00 0.00 91 1016.1
20260905034039 23 139 0.0 3.2 0.00 0.00 0.00 91 1015.9
20260905033539 23 198 0.0 3.2 0.00 0.00 0.00 91 1016.0
20260905033039 24 178 0.0 3.2 0.00 0.00 0.00 90 1016.0
20260905032543 24 182 0.0 1.6 0.00 0.00 0.00 90 1016.0
20260905032039 24 182 0.0 1.6 0.00 0.00 0.00 90 1016.0
20260905031542 24 182 0.0 0.0 0.00 0.00 0.00 90 1015.9
20260905031043 24 182 0.0 0.0 0.00 0.00 0.00 90 1016.1
20260905030640 24 182 0.0 1.6 0.00 0.00 0.00 90 1016.0
20260905030100 24 182 0.0 1.6 0.00 0.00 0.00 90 1016.1
20260905025557 24 182 0.0 1.6 0.00 0.00 0.00 90 1016.1
20260905025056 25 166 0.0 1.6 0.00 0.00 0.00 90 1016.0
20260905024556 25 166 0.0 1.6 0.00 0.00 0.00 89 1016.1
20260905024056 25 164 0.0 1.6 0.00 0.00 0.00 89 1016.0
20260905023556 25 164 0.0 1.6 0.00 0.00 0.00 90 1015.9
20260905023056 25 164 0.0 3.2 0.00 0.00 0.00 90 1016.0
20260905022555 25 164 0.0 4.8 0.00 0.00 0.00 89 1015.9
20260905022057 25 194 0.0 4.8 0.00 0.00 0.00 89 1015.8
20260905021555 25 155 0.0 1.6 0.00 0.00 0.00 88 1015.6
20260905021058 25 139 0.0 0.0 0.00 0.00 0.00 88 1015.7
20260905020656 25 139 0.0 0.0 0.00 0.00 0.00 88 1015.6
20260905020054 25 139 0.0 0.0 0.00 0.00 0.00 88 1015.6
20260905015552 25 139 0.0 1.6 0.00 0.00 0.00 87 1015.4
20260905015051 26 140 0.0 1.6 0.00 0.00 0.00 87 1015.4
20260905014550 26 140 0.0 4.8 0.00 0.00 0.00 87 1015.3
20260905014050 26 139 0.0 4.8 0.00 0.00 0.00 86 1015.1
20260905013550 26 137 0.0 0.0 0.00 0.00 0.00 86 1015.0
20260905013050 26 135 0.0 0.0 0.00 0.00 0.00 85 1014.9
20260905012550 26 135 0.0 1.6 0.00 0.00 0.00 84 1014.7
20260905012049 26 135 0.0 1.6 0.00 0.00 0.00 84 1014.7
20260905011611 27 151 0.0 1.6 0.00 0.00 0.00 83 1014.7
20260905011050 27 152 0.0 1.6 0.00 0.00 0.00 82 1014.6
20260905010650 27 142 0.0 3.2 0.00 0.00 0.00 82 1014.5
20260905010047 27 144 0.0 3.2 0.00 0.00 0.00 82 1014.4
20260905005546 27 134 0.0 1.6 0.00 0.00 0.00 82 1014.5
20260905005047 27 124 0.0 4.8 0.00 0.00 0.00 83 1014.4
20260905004547 27 130 1.6 4.8 0.00 0.00 0.00 82 1014.3
20260905004046 27 113 0.0 3.2 0.00 0.00 0.00 81 1014.3
20260905003547 28 148 0.0 3.2 0.00 0.00 0.00 81 1014.3
20260905003053 28 169 0.0 4.8 0.00 0.00 0.00 80 1014.2
20260905002545 28 148 0.0 4.8 0.00 0.00 0.00 81 1014.1
20260905002047 28 136 1.6 4.8 0.00 0.00 0.00 80 1014.1
20260905001555 28 124 1.6 4.8 0.00 0.00 0.00 79 1014.1
20260905001047 28 118 1.6 4.8 0.00 0.00 0.00 78 1014.2
20260905000646 29 117 1.6 4.8 0.00 0.00 0.00 77 1014.1
20260905000104 29 169 0.0 9.7 0.00 0.00 0.00 77 1014.2
20260904235558 29 109 1.6 6.4 0.00 0.00 0.00 76 1014.3
20260904235059 30 144 1.6 9.7 0.00 0.00 0.00 75 1014.1
20260904234559 30 162 1.6 9.7 0.00 0.00 0.00 74 1014.3
20260904234100 30 121 1.6 9.7 0.00 0.00 0.00 73 1014.2
20260904233603 30 151 3.2 12.9 0.00 0.00 0.00 73 1014.3
20260904233107 30 134 1.6 12.9 0.00 0.00 0.00 72 1014.3
20260904232559 31 156 3.2 11.3 0.00 0.00 0.00 69 1014.3
20260904232101 31 103 1.6 12.9 0.00 0.00 0.00 68 1014.3
20260904231559 32 146 3.2 12.9 0.00 0.00 0.00 65 1014.3
20260904231058 32 128 1.6 11.3 0.00 0.00 0.00 65 1014.4
20260904230658 32 76 3.2 12.9 0.00 0.00 0.00 64 1014.2
20260904230056 32 338 3.2 12.9 0.00 0.00 0.00 64 1014.2
20260904225556 33 36 1.6 14.5 0.00 0.00 0.00 63 1014.1
20260904225056 32 100 4.8 14.5 0.00 0.00 0.00 63 1014.2
20260904224555 32 101 4.8 11.3 0.00 0.00 0.00 63 1014.2
20260904224055 32 92 3.2 16.1 0.00 0.00 0.00 64 1014.2
20260904223555 32 121 4.8 16.1 0.00 0.00 0.00 64 1014.2
20260904223057 32 355 3.2 14.5 0.00 0.00 0.00 64 1014.4
20260904222554 32 74 4.8 14.5 0.00 0.00 0.00 62 1014.2
20260904222055 31 112 3.2 11.3 0.00 0.00 0.00 67 1014.4
20260904221555 31 96 3.2 11.3 0.00 0.00 0.00 68 1014.4
20260904221054 31 105 1.6 9.7 0.00 0.00 0.00 67 1014.3
20260904220654 31 145 1.6 6.4 0.00 0.00 0.00 65 1014.4
20260904220105 32 121 1.6 9.7 0.00 0.00 0.00 65 1014.4
20260904215551 32 136 1.6 8.0 0.00 0.00 0.00 63 1014.5
20260904215051 33 136 3.2 11.3 0.00 0.00 0.00 55 1014.6
20260904214551 33 61 3.2 11.3 0.00 0.00 0.00 55 1014.5
20260904214054 33 116 3.2 11.3 0.00 0.00 0.00 54 1014.6
20260904213551 34 118 3.2 14.5 0.00 0.00 0.00 58 1014.6
20260904213052 34 119 3.2 14.5 0.00 0.00 0.00 55 1014.5
20260904212553 33 90 3.2 14.5 0.00 0.00 0.00 58 1014.7
20260904212049 34 142 4.8 12.9 0.00 0.00 0.00 55 1014.8
20260904211549 34 117 3.2 12.9 0.00 0.00 0.00 55 1014.7
20260904211049 34 343 3.2 12.9 0.00 0.00 0.00 54 1014.8
20260904210651 35 66 3.2 11.3 0.00 0.00 0.00 52 1014.9
20260904210055 35 160 0.0 11.3 0.00 0.00 0.00 52 1014.9
20260904205553 35 140 3.2 12.9 0.00 0.00 0.00 51 1015.0
20260904205048 36 122 3.2 12.9 0.00 0.00 0.00 50 1014.9
20260904204548 35 148 3.2 17.7 0.00 0.00 0.00 52 1015.1
20260904204048 35 69 4.8 17.7 0.00 0.00 0.00 50 1015.1
20260904203547 35 66 9.7 16.1 0.00 0.00 0.00 51 1015.1
20260904203049 35 141 6.4 12.9 0.00 0.00 0.00 50 1015.2
20260904202546 33 65 1.6 9.7 0.00 0.00 0.00 54 1015.3
20260904202045 33 173 3.2 12.9 0.00 0.00 0.00 54 1015.4
20260904201600 34 130 3.2 12.9 0.00 0.00 0.00 52 1015.3
20260904201045 34 100 1.6 11.3 0.00 0.00 0.00 53 1015.4
20260904200647 34 149 3.2 11.3 0.00 0.00 0.00 53 1015.5
20260904200049 35 99 1.6 16.1 0.00 0.00 0.00 51 1015.5
20260904195543 35 119 6.4 16.1 0.00 0.00 0.00 50 1015.6
20260904195045 36 115 1.6 9.7 0.00 0.00 0.00 50 1015.6
20260904194542 36 87 3.2 17.7 0.00 0.00 0.00 52 1015.7
20260904194041 36 153 6.4 19.3 0.00 0.00 0.00 50 1015.8
20260904193541 36 155 6.4 19.3 0.00 0.00 0.00 50 1015.9
20260904193042 36 72 4.8 17.7 0.00 0.00 0.00 49 1015.9
20260904192540 34 78 3.2 9.7 0.00 0.00 0.00 54 1016.0
20260904192040 33 5 1.6 4.8 0.00 0.00 0.00 62 1016.1
20260904191541 34 355 1.6 4.8 0.00 0.00 0.00 54 1016.2
20260904191040 34 15 1.6 4.8 0.00 0.00 0.00 57 1016.2
20260904190640 33 321 1.6 3.2 0.00 0.00 0.00 59 1016.3
20260904190059 32 15 0.0 4.8 0.00 0.00 0.00 59 1016.3
20260904185558 32 345 3.2 4.8 0.00 0.00 0.00 57 1016.3
20260904185101 33 67 0.0 4.8 0.00 0.00 0.00 56 1016.3
20260904184558 34 93 1.6 8.0 0.00 0.00 0.00 53 1016.4
20260904184058 35 51 3.2 8.0 0.00 0.00 0.00 51 1016.4
20260904183558 36 319 1.6 8.0 0.00 0.00 0.00 49 1016.4
20260904183102 35 294 3.2 8.0 0.00 0.00 0.00 48 1016.6
20260904182556 36 318 0.0 12.9 0.00 0.00 0.00 52 1016.5
20260904182056 35 296 4.8 12.9 0.00 0.00 0.00 49 1016.5
20260904181559 34 47 3.2 6.4 0.00 0.00 0.00 56 1016.7
20260904181100 33 337 1.6 4.8 0.00 0.00 0.00 58 1016.6
20260904180656 32 22 3.2 4.8 0.00 0.00 0.00 55 1016.6
20260904180103 33 28 0.0 3.2 0.00 0.00 0.00 59 1016.8
20260904175555 33 9 1.6 3.2 0.00 0.00 0.00 58 1016.9
20260904175055 32 355 0.0 3.2 0.00 0.00 0.00 62 1016.9
20260904174602 32 355 0.0 6.4 0.00 0.00 0.00 61 1017.0
20260904174054 33 9 0.0 6.4 0.00 0.00 0.00 58 1017.1
20260904173554 34 297 3.2 6.4 0.00 0.00 0.00 52 1016.9
20260904173115 33 342 1.6 8.0 0.00 0.00 0.00 56 1017.1
20260904172555 35 317 1.6 8.0 0.00 0.00 0.00 51 1017.2
20260904172055 34 317 1.6 6.4 0.00 0.00 0.00 52 1017.2
20260904171601 32 80 0.0 4.8 0.00 0.00 0.00 63 1017.2
20260904171053 32 195 0.0 4.8 0.00 0.00 0.00 61 1017.4
20260904170654 32 313 0.0 9.7 0.00 0.00 0.00 59 1017.5
20260904170105 33 44 1.6 9.7 0.00 0.00 0.00 52 1017.6
20260904165555 35 43 1.6 11.3 0.00 0.00 0.00 49 1017.5
20260904165056 35 267 3.2 14.5 0.00 0.00 0.00 49 1017.5
20260904164556 35 307 4.8 16.1 0.00 0.00 0.00 48 1017.6
20260904164053 35 304 1.6 11.3 0.00 0.00 0.00 51 1017.7
20260904163552 34 184 1.6 9.7 0.00 0.00 0.00 53 1017.6
20260904163051 33 215 3.2 11.3 0.00 0.00 0.00 55 1017.8
20260904162551 33 232 3.2 11.3 0.00 0.00 0.00 52 1017.7
20260904162051 34 249 3.2 12.9 0.00 0.00 0.00 51 1017.7
20260904161549 34 344 3.2 11.3 0.00 0.00 0.00 53 1017.7
20260904161048 34 168 1.6 6.4 0.00 0.00 0.00 57 1017.7
20260904160649 34 65 1.6 4.8 0.00 0.00 0.00 52 1017.6
20260904160056 33 11 1.6 12.9 0.00 0.00 0.00 58 1017.6
20260904155554 33 264 3.2 12.9 0.00 0.00 0.00 55 1017.6
20260904155054 33 329 3.2 11.3 0.00 0.00 0.00 55 1017.6
20260904154553 33 257 1.6 16.1 0.00 0.00 0.00 57 1017.7
20260904154051 33 301 4.8 16.1 0.00 0.00 0.00 56 1017.7
20260904153550 33 320 3.2 12.9 0.00 0.00 0.00 55 1017.8
20260904153056 33 15 3.2 12.9 0.00 0.00 0.00 56 1017.8
20260904152546 33 291 3.2 11.3 0.00 0.00 0.00 57 1017.8
20260904152045 33 201 1.6 12.9 0.00 0.00 0.00 58 1017.9
20260904151548 33 321 6.4 22.5 0.00 0.00 0.00 57 1017.8
20260904151043 32 298 8.0 22.5 0.00 0.00 0.00 60 1017.8
20260904150642 33 273 9.7 17.7 0.00 0.00 0.00 58 1017.8
20260904150056 32 292 6.4 14.5 0.00 0.00 0.00 60 1017.7
20260904145553 32 355 3.2 14.5 0.00 0.00 0.00 61 1017.6
20260904145052 32 63 3.2 8.0 0.00 0.00 0.00 63 1017.7
20260904144553 32 221 3.2 9.7 0.00 0.00 0.00 63 1017.6
20260904144048 31 217 3.2 9.7 0.00 0.00 0.00 64 1017.7
20260904143551 31 265 1.6 8.0 0.00 0.00 0.00 64 1017.8
20260904143046 31 289 1.6 14.5 0.00 0.00 0.00 66 1017.6
20260904142544 31 291 4.8 14.5 0.00 0.00 0.00 66 1017.6
20260904142043 31 281 3.2 8.0 0.00 0.00 0.00 67 1017.6
20260904141542 30 304 0.0 6.4 0.00 0.00 0.00 69 1017.7
20260904141040 30 250 1.6 17.7 0.00 0.00 0.00 70 1017.6
20260904140502 30 311 6.4 17.7 0.00 0.00 0.00 69 1017.6
20260904140001 29 163 3.2 11.3 0.00 0.00 0.00 72 1017.6
20260904135602 29 309 1.6 11.3 0.00 0.00 0.00 74 1017.6
20260904135058 28 291 3.2 14.5 0.00 0.00 0.00 73 1017.6
20260904134604 28 335 3.2 14.5 0.00 0.00 0.00 77 1017.6
20260904134055 27 303 1.6 4.8 0.00 0.00 0.00 81 1017.7
20260904133554 25 37 0.0 8.0 0.00 0.00 0.00 88 1017.7
20260904133053 23 181 1.6 8.0 0.00 0.00 0.00 94 1017.7
20260904132552 22 112 0.0 4.8 0.00 0.00 0.00 95 1017.8
20260904132051 22 172 0.0 1.6 0.00 0.00 0.00 95 1017.6
20260904131552 22 172 0.0 0.0 0.00 0.00 0.00 95 1017.8
20260904131050 21 172 0.0 0.0 0.00 0.00 0.00 96 1017.7
20260904130650 21 172 0.0 0.0 0.00 0.00 0.00 96 1017.7
20260904130055 21 172 0.0 0.0 0.00 0.00 0.00 96 1017.8
20260904125555 21 172 0.0 0.0 0.00 0.00 0.00 96 1017.8
20260904125056 21 172 0.0 0.0 0.00 0.00 0.00 96 1017.8
20260904124601 20 172 0.0 0.0 0.00 0.00 0.00 96 1017.8
20260904124057 20 172 0.0 0.0 0.00 0.00 0.00 96 1017.8
20260904123551 20 172 0.0 0.0 0.00 0.00 0.00 96 1017.7
20260904123050 20 172 0.0 1.6 0.00 0.00 0.00 96 1017.6
20260904122550 20 172 0.0 1.6 0.00 0.00 0.00 96 1017.6
20260904122049 20 172 0.0 0.0 0.00 0.00 0.00 96 1017.6
20260904121548 20 172 0.0 0.0 0.00 0.00 0.00 96 1017.5
20260904121047 20 172 0.0 0.0 0.00 0.00 0.00 96 1017.6